Tomahawk, WI

2:27 PM CDT on May 22, 2017 (GMT -0500)
Tomahawk

Weather History for KTKV - November, 2013

Change the Weather History Date:

Saturday, November 16, 2013

  Actual Average (KRHI) Record (KRHI)
Temperature  
Mean Temperature 44 °F -  
Max Temperature 52 °F 38 °F 63 °F (1931)
Min Temperature 35 °F 21 °F -9 °F (1932)
Degree Days  
Heating Degree Days 22    
Moisture  
Dew Point 39 °F    
Average Humidity 89    
Maximum Humidity 97    
Minimum Humidity 77    
Precipitation  
Precipitation 0.90 in - - ()
Sea Level Pressure  
Sea Level Pressure 29.54 in    
Wind  
Wind Speed 4 mph (SSE)    
Max Wind Speed 9 mph    
Max Gust Speed 22 mph    
Visibility 6 miles    
Events Rain    
Averages and records for this station are not official NWS values.
T = Trace of Precipitation, MM = Missing Value Source: NWS Daily Summary

Daily Weather History Graph

Daily Weather History Graph

Search for Another Location

Airport or City:

Trip Planner

Search our weather history database for the weather conditions in past years. The results will help you decide how hot, cold, wet, or windy it might be!

Date:

Astronomy

Nov. 16, 2013 Rise Set
Actual Time 6:59 AM CST 4:27 PM CST
Civil Twilight 6:27 AM CST 4:59 PM CST
Nautical Twilight 5:51 AM CST 5:35 PM CST
Astronomical Twilight 5:16 AM CST 6:10 PM CST
Moon 4:04 PM CST (11/16) 5:53 AM CST (11/16)
Length of Visible Light 10h 32m
Length of Day
9h 27m
Waxing Gibbous, 99% of the Moon is Illuminated
Nov 16
Waxing Gibbous
Nov 17
Full
Nov 25
Last Quarter
Dec 2
New
Dec 9
First Quarter

Hourly Weather History & Observations

Time (CST) Temp. Windchill Dew Point Humidity Pressure Visibility Wind Dir Wind Speed Gust Speed Precip Events Conditions
12:15 AM 36.5 °F 33.9 °F 32.0 °F 84% 29.76 in 10.0 mi SSE 3.5 mph - N/A   Clear
12:35 AM 36.9 °F 34.3 °F 32.0 °F 83% 29.75 in 10.0 mi SSE 3.5 mph - N/A   Clear
12:55 AM 36.7 °F - 31.8 °F 83% 29.75 in 10.0 mi Calm Calm - N/A   Clear
1:15 AM 36.0 °F 33.3 °F 31.1 °F 82% 29.74 in 10.0 mi SSE 3.5 mph - N/A   Clear
1:35 AM 35.6 °F - 31.1 °F 84% 29.73 in 10.0 mi Calm Calm - N/A   Clear
1:55 AM 35.6 °F 32.8 °F 30.9 °F 83% 29.73 in 10.0 mi SSE 3.5 mph - N/A   Clear
2:15 AM 35.6 °F 31.7 °F 31.1 °F 84% 29.74 in 10.0 mi South 4.6 mph - N/A   Scattered Clouds
2:35 AM 37.0 °F 33.3 °F 31.8 °F 81% 29.74 in 10.0 mi SSE 4.6 mph - N/A   Mostly Cloudy
2:55 AM 37.6 °F - 32.0 °F 80% 29.73 in 10.0 mi Calm Calm - N/A   Overcast
3:15 AM 37.6 °F 34.0 °F 32.0 °F 80% 29.72 in 10.0 mi SSE 4.6 mph - N/A   Overcast
3:35 AM 38.3 °F 34.8 °F 32.0 °F 78% 29.72 in 10.0 mi South 4.6 mph - N/A   Overcast
3:55 AM 38.7 °F 36.3 °F 32.2 °F 78% 29.72 in 10.0 mi SSE 3.5 mph - N/A   Overcast
4:15 AM 38.8 °F 36.5 °F 32.2 °F 77% 29.71 in 10.0 mi SSE 3.5 mph - N/A   Overcast
4:35 AM 37.4 °F 34.9 °F 32.0 °F 81% 29.70 in 10.0 mi SSE 3.5 mph - N/A   Mostly Cloudy
4:55 AM 37.8 °F 34.2 °F 32.0 °F 80% 29.70 in 10.0 mi South 4.6 mph - N/A   Mostly Cloudy
5:15 AM 37.8 °F 35.3 °F 32.0 °F 80% 29.70 in 10.0 mi SSE 3.5 mph - N/A   Overcast
5:35 AM 37.9 °F 33.5 °F 32.0 °F 79% 29.69 in 10.0 mi SSE 5.8 mph - N/A   Overcast
5:55 AM 38.5 °F 36.1 °F 32.2 °F 78% 29.68 in 10.0 mi SE 3.5 mph - N/A   Overcast
6:15 AM 38.7 °F 35.2 °F 32.5 °F 79% 29.67 in 10.0 mi SE 4.6 mph - N/A   Overcast
6:35 AM 38.7 °F 35.2 °F 32.5 °F 79% 29.66 in 10.0 mi SSE 4.6 mph - N/A   Overcast
6:55 AM 38.3 °F 35.9 °F 32.5 °F 80% 29.67 in 10.0 mi SSE 3.5 mph - N/A   Overcast
7:15 AM 38.3 °F 33.9 °F 32.9 °F 81% 29.66 in 10.0 mi SSE 5.8 mph - N/A   Overcast
7:35 AM 38.3 °F 33.9 °F 32.9 °F 81% 29.65 in 10.0 mi SE 5.8 mph - N/A   Overcast
7:55 AM 38.7 °F 36.3 °F 33.6 °F 82% 29.65 in 10.0 mi SSE 3.5 mph - N/A   Overcast
8:15 AM 38.8 °F 36.5 °F 33.6 °F 82% 29.65 in 10.0 mi SSE 3.5 mph - N/A   Overcast
8:35 AM 38.8 °F 33.8 °F 33.8 °F 82% 29.64 in 10.0 mi SSE 6.9 mph - N/A   Overcast
8:55 AM 37.9 °F 31.5 °F 33.4 °F 84% 29.64 in 7.0 mi SE 9.2 mph - N/A   Overcast
9:15 AM 37.4 °F 33.8 °F 33.4 °F 86% 29.65 in 7.0 mi SSE 4.6 mph - N/A   Overcast
9:35 AM 37.8 °F 33.3 °F 33.8 °F 86% 29.64 in 5.0 mi SSE 5.8 mph - N/A   Overcast
9:55 AM 37.6 °F 34.0 °F 33.8 °F 86% 29.64 in 5.0 mi SSE 4.6 mph - N/A   Overcast
10:15 AM 36.9 °F 31.4 °F 34.2 °F 90% 29.64 in 2.5 mi SSE 6.9 mph 18.4 mph N/A   Overcast
10:35 AM 36.9 °F 32.2 °F 34.7 °F 92% 29.64 in 1.8 mi South 5.8 mph - N/A   Overcast
10:55 AM 36.9 °F 32.2 °F 35.1 °F 93% 29.62 in 1.2 mi SSE 5.8 mph - N/A   Overcast
11:15 AM 37.0 °F 33.3 °F 35.6 °F 95% 29.61 in 0.8 mi SE 4.6 mph - N/A   Overcast
11:35 AM 37.4 °F 32.8 °F 35.8 °F 94% 29.59 in 1.0 mi SE 5.8 mph - N/A   Overcast
11:55 AM 37.9 °F 33.5 °F 36.5 °F 95% 29.58 in 1.0 mi SSE 5.8 mph - N/A   Overcast
12:15 PM 37.9 °F 34.4 °F 36.5 °F 95% 29.56 in 1.0 mi SSE 4.6 mph - N/A   Overcast
12:35 PM 38.5 °F - 37.4 °F 96% 29.55 in 1.2 mi Calm Calm - N/A   Overcast
12:55 PM 38.8 °F 36.5 °F 37.6 °F 95% 29.55 in 1.2 mi SE 3.5 mph - N/A Rain Light Rain
1:15 PM 39.2 °F 37.0 °F 37.9 °F 95% 29.54 in 1.0 mi SSE 3.5 mph - N/A   Drizzle
1:35 PM 39.4 °F 36.1 °F 38.3 °F 96% 29.52 in 1.2 mi SE 4.6 mph - N/A   Drizzle
1:55 PM 39.7 °F 35.6 °F 38.7 °F 96% 29.51 in 1.8 mi SE 5.8 mph - N/A Rain Light Rain
2:15 PM 40.3 °F 34.9 °F 39.2 °F 96% 29.45 in 1.8 mi ESE 8.1 mph 16.1 mph 0.06 in Rain Rain
2:35 PM 41.0 °F 38.0 °F 40.1 °F 97% 29.46 in 3.0 mi SSE 4.6 mph - 0.07 in   Overcast
2:55 PM 41.4 °F 38.4 °F 40.3 °F 96% 29.46 in 4.0 mi ESE 4.6 mph - 0.09 in Rain Rain
3:15 PM 41.9 °F 39.0 °F 41.0 °F 97% 29.44 in 1.8 mi ESE 4.6 mph - 0.03 in Rain Rain
3:35 PM 42.3 °F 39.4 °F 41.2 °F 96% 29.43 in 2.5 mi SE 4.6 mph - 0.06 in Rain Light Rain
3:55 PM 42.8 °F 39.3 °F 41.5 °F 95% 29.41 in 4.0 mi ESE 5.8 mph - 0.09 in Rain Light Rain
4:15 PM 43.2 °F - 42.1 °F 96% 29.39 in 3.0 mi Calm Calm - 0.07 in Rain Rain
4:35 PM 43.3 °F 40.7 °F 42.3 °F 96% 29.38 in 2.5 mi SE 4.6 mph - 0.17 in Rain Heavy Rain
4:55 PM 44.1 °F 42.5 °F 43.0 °F 96% 29.38 in 4.0 mi SSE 3.5 mph - 0.23 in Rain Rain
5:15 PM 44.6 °F 42.2 °F 43.3 °F 95% 29.37 in 3.0 mi SE 4.6 mph - 0.11 in Rain Rain
5:35 PM 45.0 °F - 43.9 °F 96% 29.37 in 5.0 mi Calm Calm - 0.19 in Rain Light Rain
5:55 PM 45.1 °F - 44.1 °F 96% 29.37 in 5.0 mi Calm Calm - 0.20 in Rain Rain
6:15 PM 45.7 °F - 44.6 °F 96% 29.35 in 5.0 mi Calm Calm - 0.03 in Rain Light Rain
6:35 PM 45.9 °F 44.6 °F 44.8 °F 96% 29.34 in 4.0 mi SE 3.5 mph - 0.06 in Rain Heavy Rain
6:55 PM 46.6 °F - 45.7 °F 97% 29.32 in 5.0 mi SE 3.5 mph - 0.11 in   Overcast
7:15 PM 47.8 °F - 46.9 °F 97% 29.32 in 4.0 mi SSE 3.5 mph - 0.04 in Rain Light Rain
7:35 PM 48.7 °F - 47.8 °F 97% 29.32 in 5.0 mi SSE 3.5 mph - 0.04 in   Drizzle
7:55 PM 49.5 °F - 48.6 °F 97% 29.31 in 5.0 mi SSE 4.6 mph - 0.06 in Rain Light Rain
8:15 PM 50.0 °F - 48.9 °F 96% 29.31 in 7.0 mi South 3.5 mph - 0.03 in   Overcast
8:35 PM 50.2 °F - 49.1 °F 96% 29.32 in 5.0 mi South 3.5 mph - 0.12 in Rain Rain
8:55 PM 50.4 °F - 49.3 °F 96% 29.32 in 5.0 mi South 4.6 mph - 0.12 in   Overcast
9:15 PM 51.1 °F - 50.0 °F 96% 29.33 in 5.0 mi South 5.8 mph - N/A   Overcast
9:35 PM 51.8 °F - 50.4 °F 95% 29.33 in 7.0 mi South 5.8 mph - N/A   Overcast
9:55 PM 51.8 °F - 50.2 °F 94% 29.33 in 7.0 mi SSW 5.8 mph - N/A   Overcast
10:15 PM 52.0 °F - 50.4 °F 94% 29.33 in 7.0 mi SSW 4.6 mph - N/A   Overcast
10:35 PM 52.7 °F - 50.7 °F 93% 29.33 in 10.0 mi SSW 5.8 mph - N/A   Overcast
10:55 PM 52.7 °F - 50.2 °F 91% 29.34 in 10.0 mi SSW 4.6 mph - N/A   Overcast
11:15 PM 52.0 °F - 49.1 °F 90% 29.34 in 10.0 mi SW 5.8 mph - N/A   Mostly Cloudy
11:35 PM 50.9 °F - 47.3 °F 87% 29.35 in 10.0 mi SSW 5.8 mph - N/A   Scattered Clouds
11:55 PM 50.5 °F - 46.6 °F 86% 29.35 in 10.0 mi SSW 6.9 mph 21.9 mph N/A   Scattered Clouds